Location: *
(37.5724°S, 58.0067°E)
Time: 08:12:29
(UTC+00:00)

Cosmos 1933 Rocket - Pass Details

Date: 29 January 2021
Orbit: 607 x 630 km, 82.5° (Epoch: 04 March)

Event Time Altitude Azimuth Distance (km) Brightness Sun altitude
Rises 18:56:32 0° 192° (SSW) 2,957 8.1 -31.2°
Reaches altitude 10° 18:58:50 10° 195° (SSW) 2,040 7.1 -31.4°
Enters shadow 19:01:29 34° 210° (SSW) 1,065 5.2 -31.6°
